Time,TemperatureF,DewpointF,PressureIn,WindDirection,WindDirectionDegrees,WindSpeedMPH,WindSpeedGustMPH,Humidity,HourlyPrecipIn,Conditions,Clouds,dailyrainin,SoftwareType,DateUTC
2013-05-16 00:01:00,61.5,48.4,29.87,West,263,0.0,0.0,62,0.00,,,0.00,vanprod-2.3,2013-05-16 05:01:00,
2013-05-16 00:06:00,61.1,48.4,29.87,West,263,0.0,0.0,63,0.00,,,0.00,vanprod-2.3,2013-05-16 05:06:00,
2013-05-16 00:11:00,60.7,48.0,29.87,West,263,0.0,0.0,63,0.00,,,0.00,vanprod-2.3,2013-05-16 05:11:00,
2013-05-16 00:16:00,60.5,48.3,29.87,West,263,0.0,0.0,64,0.00,,,0.00,vanprod-2.3,2013-05-16 05:16:00,
2013-05-16 00:21:00,60.2,48.0,29.87,West,263,0.0,0.0,64,0.00,,,0.00,vanprod-2.3,2013-05-16 05:21:00,
2013-05-16 00:26:00,60.0,48.2,29.87,West,263,0.0,2.0,65,0.00,,,0.00,vanprod-2.3,2013-05-16 05:26:00,
2013-05-16 00:31:00,59.7,47.9,29.87,West,263,0.0,0.0,65,0.00,,,0.00,vanprod-2.3,2013-05-16 05:31:00,
2013-05-16 00:36:00,59.4,47.6,29.87,West,263,0.0,0.0,65,0.00,,,0.00,vanprod-2.3,2013-05-16 05:36:00,
2013-05-16 00:41:00,59.3,47.6,29.87,West,263,0.0,0.0,65,0.00,,,0.00,vanprod-2.3,2013-05-16 05:41:00,
2013-05-16 00:46:00,59.1,47.8,29.87,West,263,0.0,0.0,66,0.00,,,0.00,vanprod-2.3,2013-05-16 05:46:00,
2013-05-16 00:51:00,59.0,47.7,29.87,West,263,0.0,0.0,66,0.00,,,0.00,vanprod-2.3,2013-05-16 05:51:00,
2013-05-16 00:56:00,58.8,47.9,29.88,West,263,0.0,0.0,67,0.00,,,0.00,vanprod-2.3,2013-05-16 05:56:00,
2013-05-16 01:01:00,58.7,47.8,29.88,West,263,0.0,2.0,67,0.00,,,0.00,vanprod-2.3,2013-05-16 06:01:00,
2013-05-16 01:06:00,58.5,47.2,29.88,West,263,0.0,0.0,66,0.00,,,0.00,vanprod-2.3,2013-05-16 06:06:00,
2013-05-16 01:11:00,58.5,47.2,29.88,West,263,0.0,0.0,66,0.00,,,0.00,vanprod-2.3,2013-05-16 06:11:00,
2013-05-16 01:16:00,58.2,47.3,29.88,West,263,0.0,0.0,67,0.00,,,0.00,vanprod-2.3,2013-05-16 06:16:00,
2013-05-16 01:21:00,58.1,47.6,29.88,West,263,0.0,0.0,68,0.00,,,0.00,vanprod-2.3,2013-05-16 06:21:00,
2013-05-16 01:26:00,57.9,47.4,29.88,West,263,0.0,0.0,68,0.00,,,0.00,vanprod-2.3,2013-05-16 06:26:00,
2013-05-16 01:31:00,57.8,47.3,29.88,West,263,0.0,0.0,68,0.00,,,0.00,vanprod-2.3,2013-05-16 06:31:00,
2013-05-16 01:36:00,57.6,47.1,29.88,West,263,0.0,0.0,68,0.00,,,0.00,vanprod-2.3,2013-05-16 06:36:00,
2013-05-16 01:41:00,57.5,47.0,29.88,West,263,0.0,0.0,68,0.00,,,0.00,vanprod-2.3,2013-05-16 06:41:00,
2013-05-16 01:46:00,57.5,47.0,29.88,West,263,1.0,0.0,68,0.00,,,0.00,vanprod-2.3,2013-05-16 06:46:00,
2013-05-16 01:51:00,57.3,46.8,29.88,West,263,0.0,0.0,68,0.00,,,0.00,vanprod-2.3,2013-05-16 06:51:00,
2013-05-16 01:56:00,57.3,46.8,29.88,West,263,0.0,2.0,68,0.00,,,0.00,vanprod-2.3,2013-05-16 06:56:00,
2013-05-16 02:01:00,57.1,46.7,29.88,West,263,0.0,0.0,68,0.00,,,0.00,vanprod-2.3,2013-05-16 07:01:00,
2013-05-16 02:06:00,57.3,46.8,29.88,West,263,0.0,0.0,68,0.00,,,0.00,vanprod-2.3,2013-05-16 07:06:00,
2013-05-16 02:11:00,57.3,46.8,29.88,West,263,0.0,0.0,68,0.00,,,0.00,vanprod-2.3,2013-05-16 07:11:00,
2013-05-16 02:16:00,57.5,47.0,29.88,West,263,0.0,1.0,68,0.00,,,0.00,vanprod-2.3,2013-05-16 07:16:00,
2013-05-16 02:21:00,57.5,47.0,29.88,West,263,0.0,0.0,68,0.00,,,0.00,vanprod-2.3,2013-05-16 07:21:00,
2013-05-16 02:26:00,57.1,47.0,29.88,West,263,0.0,0.0,69,0.00,,,0.00,vanprod-2.3,2013-05-16 07:26:00,
2013-05-16 02:31:00,56.8,47.1,29.88,West,263,0.0,0.0,70,0.00,,,0.00,vanprod-2.3,2013-05-16 07:31:00,
2013-05-16 02:36:00,56.5,47.2,29.88,West,263,0.0,0.0,71,0.00,,,0.00,vanprod-2.3,2013-05-16 07:36:00,
2013-05-16 02:41:00,56.4,46.8,29.89,West,263,1.0,3.0,70,0.00,,,0.00,vanprod-2.3,2013-05-16 07:41:00,
2013-05-16 02:46:00,56.4,46.8,29.88,West,263,1.0,2.0,70,0.00,,,0.00,vanprod-2.3,2013-05-16 07:46:00,
2013-05-16 02:51:00,56.2,46.6,29.88,West,263,0.0,0.0,70,0.00,,,0.00,vanprod-2.3,2013-05-16 07:51:00,
2013-05-16 02:56:00,56.1,46.8,29.88,West,263,0.0,1.0,71,0.00,,,0.00,vanprod-2.3,2013-05-16 07:56:00,
2013-05-16 03:01:00,56.0,46.7,29.89,West,263,0.0,0.0,71,0.00,,,0.00,vanprod-2.3,2013-05-16 08:01:00,
2013-05-16 03:06:00,55.8,46.9,29.89,West,263,0.0,0.0,72,0.00,,,0.00,vanprod-2.3,2013-05-16 08:06:00,
2013-05-16 03:11:00,55.5,46.6,29.89,West,263,0.0,0.0,72,0.00,,,0.00,vanprod-2.3,2013-05-16 08:11:00,
2013-05-16 03:16:00,55.4,46.9,29.88,West,263,0.0,0.0,73,0.00,,,0.00,vanprod-2.3,2013-05-16 08:16:00,
2013-05-16 03:21:00,55.1,47.0,29.88,West,263,0.0,0.0,74,0.00,,,0.00,vanprod-2.3,2013-05-16 08:21:00,
2013-05-16 03:26:00,54.9,46.8,29.89,West,263,0.0,0.0,74,0.00,,,0.00,vanprod-2.3,2013-05-16 08:26:00,
2013-05-16 03:31:00,54.6,46.5,29.89,West,263,0.0,0.0,74,0.00,,,0.00,vanprod-2.3,2013-05-16 08:31:00,
2013-05-16 03:36:00,54.5,46.7,29.89,West,263,0.0,0.0,75,0.00,,,0.00,vanprod-2.3,2013-05-16 08:36:00,
2013-05-16 03:41:00,54.2,46.5,29.89,West,263,0.0,0.0,75,0.00,,,0.00,vanprod-2.3,2013-05-16 08:41:00,
2013-05-16 03:46:00,54.0,46.3,29.89,West,263,0.0,0.0,75,0.00,,,0.00,vanprod-2.3,2013-05-16 08:46:00,
2013-05-16 03:51:00,53.9,46.5,29.89,West,263,0.0,0.0,76,0.00,,,0.00,vanprod-2.3,2013-05-16 08:51:00,
2013-05-16 03:56:00,53.7,46.0,29.89,West,263,0.0,0.0,75,0.00,,,0.00,vanprod-2.3,2013-05-16 08:56:00,
2013-05-16 04:01:00,53.6,45.9,29.89,West,263,0.0,2.0,75,0.00,,,0.00,vanprod-2.3,2013-05-16 09:01:00,
2013-05-16 04:06:00,53.6,45.9,29.89,West,263,0.0,0.0,75,0.00,,,0.00,vanprod-2.3,2013-05-16 09:06:00,
2013-05-16 04:11:00,53.4,46.0,29.89,West,263,0.0,0.0,76,0.00,,,0.00,vanprod-2.3,2013-05-16 09:11:00,
2013-05-16 04:16:00,53.3,45.9,29.89,West,263,0.0,0.0,76,0.00,,,0.00,vanprod-2.3,2013-05-16 09:16:00,
2013-05-16 04:21:00,53.1,45.7,29.89,West,263,0.0,0.0,76,0.00,,,0.00,vanprod-2.3,2013-05-16 09:21:00,
2013-05-16 04:26:00,53.0,45.6,29.89,West,263,0.0,0.0,76,0.00,,,0.00,vanprod-2.3,2013-05-16 09:26:00,
2013-05-16 04:31:00,52.8,45.1,29.89,West,263,1.0,0.0,75,0.00,,,0.00,vanprod-2.3,2013-05-16 09:31:00,
2013-05-16 04:36:00,52.7,45.4,29.89,West,263,0.0,0.0,76,0.00,,,0.00,vanprod-2.3,2013-05-16 09:36:00,
2013-05-16 04:41:00,52.7,45.0,29.89,West,263,0.0,0.0,75,0.00,,,0.00,vanprod-2.3,2013-05-16 09:41:00,
2013-05-16 04:46:00,52.6,44.6,29.90,West,263,0.0,0.0,74,0.00,,,0.00,vanprod-2.3,2013-05-16 09:46:00,
2013-05-16 04:51:00,52.6,44.2,29.89,West,263,0.0,0.0,73,0.00,,,0.00,vanprod-2.3,2013-05-16 09:51:00,
2013-05-16 04:56:00,52.6,44.2,29.89,West,263,0.0,0.0,73,0.00,,,0.00,vanprod-2.3,2013-05-16 09:56:00,
2013-05-16 05:01:00,52.6,43.8,29.89,West,263,0.0,0.0,72,0.00,,,0.00,vanprod-2.3,2013-05-16 10:01:00,
2013-05-16 05:06:00,52.6,43.1,29.89,West,263,0.0,0.0,70,0.00,,,0.00,vanprod-2.3,2013-05-16 10:06:00,
2013-05-16 05:11:00,52.6,42.4,29.89,West,263,0.0,0.0,68,0.00,,,0.00,vanprod-2.3,2013-05-16 10:11:00,
2013-05-16 05:16:00,52.6,42.0,29.89,West,263,0.0,0.0,67,0.00,,,0.00,vanprod-2.3,2013-05-16 10:16:00,
2013-05-16 05:21:00,52.6,42.0,29.89,West,263,0.0,0.0,67,0.00,,,0.00,vanprod-2.3,2013-05-16 10:21:00,
2013-05-16 05:26:00,52.4,41.8,29.89,West,263,0.0,0.0,67,0.00,,,0.00,vanprod-2.3,2013-05-16 10:26:00,
2013-05-16 05:31:00,52.4,42.2,29.89,West,263,0.0,0.0,68,0.00,,,0.00,vanprod-2.3,2013-05-16 10:31:00,
2013-05-16 05:36:00,52.3,41.7,29.90,West,263,0.0,0.0,67,0.00,,,0.00,vanprod-2.3,2013-05-16 10:36:00,
2013-05-16 05:41:00,52.3,41.7,29.90,West,263,0.0,0.0,67,0.00,,,0.00,vanprod-2.3,2013-05-16 10:41:00,
2013-05-16 05:46:00,52.3,41.7,29.90,West,263,0.0,0.0,67,0.00,,,0.00,vanprod-2.3,2013-05-16 10:46:00,
2013-05-16 05:51:00,52.1,41.9,29.90,West,263,0.0,0.0,68,0.00,,,0.00,vanprod-2.3,2013-05-16 10:51:00,
2013-05-16 05:56:00,52.1,41.5,29.90,West,263,0.0,0.0,67,0.00,,,0.00,vanprod-2.3,2013-05-16 10:56:00,
2013-05-16 06:01:00,52.1,41.5,29.90,West,263,0.0,0.0,67,0.00,,,0.00,vanprod-2.3,2013-05-16 11:01:00,
2013-05-16 06:06:00,52.1,41.5,29.90,West,263,0.0,0.0,67,0.00,,,0.00,vanprod-2.3,2013-05-16 11:06:00,
2013-05-16 06:11:00,52.1,41.5,29.90,West,263,0.0,0.0,67,0.00,,,0.00,vanprod-2.3,2013-05-16 11:11:00,
2013-05-16 06:16:00,52.1,41.5,29.90,West,263,0.0,0.0,67,0.00,,,0.00,vanprod-2.3,2013-05-16 11:16:00,
2013-05-16 06:21:00,52.1,41.5,29.90,West,263,0.0,0.0,67,0.00,,,0.00,vanprod-2.3,2013-05-16 11:21:00,
2013-05-16 06:26:00,52.0,41.8,29.90,West,263,0.0,0.0,68,0.00,,,0.00,vanprod-2.3,2013-05-16 11:26:00,
2013-05-16 06:31:00,52.0,42.2,29.90,West,263,0.0,0.0,69,0.00,,,0.00,vanprod-2.3,2013-05-16 11:31:00,
2013-05-16 06:36:00,52.0,42.2,29.90,West,263,0.0,0.0,69,0.00,,,0.00,vanprod-2.3,2013-05-16 11:36:00,
2013-05-16 06:41:00,51.8,42.0,29.90,West,263,0.0,0.0,69,0.00,,,0.00,vanprod-2.3,2013-05-16 11:41:00,
2013-05-16 06:46:00,51.7,42.6,29.90,West,263,0.0,0.0,71,0.00,,,0.00,vanprod-2.3,2013-05-16 11:46:00,
2013-05-16 06:51:00,51.8,43.1,29.90,West,263,0.0,0.0,72,0.00,,,0.00,vanprod-2.3,2013-05-16 11:51:00,
2013-05-16 06:56:00,52.4,42.2,29.91,West,263,0.0,0.0,68,0.00,,,0.00,vanprod-2.3,2013-05-16 11:56:00,
2013-05-16 07:01:00,53.1,42.4,29.91,West,263,0.0,0.0,67,0.00,,,0.00,vanprod-2.3,2013-05-16 12:01:00,
2013-05-16 07:06:00,53.7,42.2,29.91,West,263,0.0,0.0,65,0.00,,,0.00,vanprod-2.3,2013-05-16 12:06:00,
2013-05-16 07:11:00,54.5,41.3,29.91,West,263,1.0,1.0,61,0.00,,,0.00,vanprod-2.3,2013-05-16 12:11:00,
2013-05-16 07:16:00,55.2,41.6,29.91,West,263,1.0,0.0,60,0.00,,,0.00,vanprod-2.3,2013-05-16 12:16:00,
2013-05-16 07:21:00,55.7,41.6,29.91,West,263,0.0,0.0,59,0.00,,,0.00,vanprod-2.3,2013-05-16 12:21:00,
2013-05-16 07:26:00,56.1,41.5,29.91,West,263,0.0,0.0,58,0.00,,,0.00,vanprod-2.3,2013-05-16 12:26:00,
2013-05-16 07:31:00,56.7,41.7,29.91,West,263,1.0,1.0,57,0.00,,,0.00,vanprod-2.3,2013-05-16 12:31:00,
2013-05-16 07:36:00,57.3,42.2,29.92,West,263,1.0,1.0,57,0.00,,,0.00,vanprod-2.3,2013-05-16 12:36:00,
2013-05-16 07:41:00,57.6,42.5,29.92,West,263,1.0,1.0,57,0.00,,,0.00,vanprod-2.3,2013-05-16 12:41:00,
2013-05-16 07:46:00,57.8,42.7,29.92,West,263,0.0,0.0,57,0.00,,,0.00,vanprod-2.3,2013-05-16 12:46:00,
2013-05-16 07:51:00,58.4,42.8,29.92,West,263,1.0,0.0,56,0.00,,,0.00,vanprod-2.3,2013-05-16 12:51:00,
2013-05-16 07:56:00,59.0,43.3,29.92,West,263,0.0,2.0,56,0.00,,,0.00,vanprod-2.3,2013-05-16 12:56:00,
2013-05-16 08:01:00,59.6,43.0,29.92,West,263,1.0,1.0,54,0.00,,,0.00,vanprod-2.3,2013-05-16 13:01:00,
2013-05-16 08:06:00,60.0,43.3,29.91,West,263,1.0,0.0,54,0.00,,,0.00,vanprod-2.3,2013-05-16 13:06:00,
2013-05-16 08:11:00,60.8,44.1,29.91,West,263,0.0,2.0,54,0.00,,,0.00,vanprod-2.3,2013-05-16 13:11:00,
2013-05-16 08:16:00,61.6,43.3,29.91,West,263,1.0,0.0,51,0.00,,,0.00,vanprod-2.3,2013-05-16 13:16:00,
2013-05-16 08:21:00,62.2,42.8,29.91,West,263,1.0,2.0,49,0.00,,,0.00,vanprod-2.3,2013-05-16 13:21:00,
2013-05-16 08:26:00,62.7,43.3,29.91,West,263,1.0,2.0,49,0.00,,,0.00,vanprod-2.3,2013-05-16 13:26:00,
2013-05-16 08:31:00,63.2,44.3,29.91,West,263,1.0,6.0,50,0.00,,,0.00,vanprod-2.3,2013-05-16 13:31:00,
2013-05-16 08:36:00,63.8,43.2,29.92,West,263,0.0,1.0,47,0.00,,,0.00,vanprod-2.3,2013-05-16 13:36:00,
2013-05-16 08:41:00,64.7,42.9,29.92,West,263,1.0,2.0,45,0.00,,,0.00,vanprod-2.3,2013-05-16 13:41:00,
2013-05-16 08:46:00,65.1,43.8,29.91,West,263,0.0,0.0,46,0.00,,,0.00,vanprod-2.3,2013-05-16 13:46:00,
2013-05-16 08:51:00,65.6,43.1,29.92,West,263,0.0,0.0,44,0.00,,,0.00,vanprod-2.3,2013-05-16 13:51:00,
2013-05-16 08:56:00,66.3,43.2,29.92,West,263,1.0,0.0,43,0.00,,,0.00,vanprod-2.3,2013-05-16 13:56:00,
2013-05-16 09:01:00,66.9,43.1,29.92,West,263,1.0,0.0,42,0.00,,,0.00,vanprod-2.3,2013-05-16 14:01:00,
2013-05-16 09:06:00,67.8,43.9,29.92,West,263,0.0,0.0,42,0.00,,,0.00,vanprod-2.3,2013-05-16 14:06:00,
2013-05-16 09:11:00,68.4,43.2,29.92,West,263,1.0,0.0,40,0.00,,,0.00,vanprod-2.3,2013-05-16 14:11:00,
2013-05-16 09:16:00,69.3,42.6,29.92,West,263,2.0,3.0,38,0.00,,,0.00,vanprod-2.3,2013-05-16 14:16:00,
2013-05-16 09:21:00,70.1,42.6,29.92,West,263,2.0,3.0,37,0.00,,,0.00,vanprod-2.3,2013-05-16 14:21:00,
2013-05-16 09:26:00,70.6,43.1,29.92,West,263,1.0,1.0,37,0.00,,,0.00,vanprod-2.3,2013-05-16 14:26:00,
2013-05-16 09:31:00,71.3,41.5,29.92,West,263,2.0,2.0,34,0.00,,,0.00,vanprod-2.3,2013-05-16 14:31:00,
2013-05-16 09:36:00,71.6,41.0,29.92,West,263,2.0,2.0,33,0.00,,,0.00,vanprod-2.3,2013-05-16 14:36:00,
2013-05-16 09:41:00,72.2,40.7,29.91,West,263,1.0,0.0,32,0.00,,,0.00,vanprod-2.3,2013-05-16 14:41:00,
2013-05-16 09:46:00,72.7,40.3,29.91,West,263,1.0,1.0,31,0.00,,,0.00,vanprod-2.3,2013-05-16 14:46:00,
2013-05-16 09:51:00,73.4,41.8,29.91,West,263,0.0,0.0,32,0.00,,,0.00,vanprod-2.3,2013-05-16 14:51:00,
2013-05-16 09:56:00,74.1,41.6,29.91,West,263,0.0,1.0,31,0.00,,,0.00,vanprod-2.3,2013-05-16 14:56:00,
2013-05-16 10:01:00,74.4,42.6,29.91,West,263,1.0,2.0,32,0.00,,,0.00,vanprod-2.3,2013-05-16 15:01:00,
2013-05-16 10:06:00,74.9,42.3,29.90,West,263,1.0,0.0,31,0.00,,,0.00,vanprod-2.3,2013-05-16 15:06:00,
2013-05-16 10:11:00,75.1,42.4,29.90,West,263,2.0,2.0,31,0.00,,,0.00,vanprod-2.3,2013-05-16 15:11:00,
2013-05-16 10:16:00,75.6,42.0,29.90,West,263,1.0,1.0,30,0.00,,,0.00,vanprod-2.3,2013-05-16 15:16:00,
2013-05-16 10:21:00,76.0,42.4,29.90,West,263,1.0,0.0,30,0.00,,,0.00,vanprod-2.3,2013-05-16 15:21:00,
2013-05-16 10:26:00,76.3,41.7,29.90,West,263,1.0,0.0,29,0.00,,,0.00,vanprod-2.3,2013-05-16 15:26:00,
2013-05-16 10:31:00,77.1,42.4,29.89,West,263,0.0,1.0,29,0.00,,,0.00,vanprod-2.3,2013-05-16 15:31:00,
2013-05-16 10:36:00,77.6,41.9,29.89,West,263,1.0,2.0,28,0.00,,,0.00,vanprod-2.3,2013-05-16 15:36:00,
2013-05-16 10:41:00,77.4,41.8,29.89,West,263,2.0,2.0,28,0.00,,,0.00,vanprod-2.3,2013-05-16 15:41:00,
2013-05-16 10:46:00,77.8,40.2,29.89,West,263,3.0,3.0,26,0.00,,,0.00,vanprod-2.3,2013-05-16 15:46:00,
2013-05-16 10:51:00,78.0,41.3,29.89,West,263,3.0,3.0,27,0.00,,,0.00,vanprod-2.3,2013-05-16 15:51:00,
2013-05-16 10:56:00,78.5,39.8,29.89,West,263,3.0,4.0,25,0.00,,,0.00,vanprod-2.3,2013-05-16 15:56:00,
2013-05-16 11:01:00,78.9,41.1,29.89,West,263,0.0,2.0,26,0.00,,,0.00,vanprod-2.3,2013-05-16 16:01:00,
2013-05-16 11:06:00,79.3,40.5,29.89,West,263,1.0,5.0,25,0.00,,,0.00,vanprod-2.3,2013-05-16 16:06:00,
2013-05-16 11:11:00,78.9,40.1,29.89,West,263,1.0,0.0,25,0.00,,,0.00,vanprod-2.3,2013-05-16 16:11:00,
2013-05-16 11:16:00,79.1,39.2,29.89,West,263,1.0,2.0,24,0.00,,,0.00,vanprod-2.3,2013-05-16 16:16:00,
2013-05-16 11:21:00,79.4,40.5,29.89,West,263,2.0,2.0,25,0.00,,,0.00,vanprod-2.3,2013-05-16 16:21:00,
2013-05-16 11:26:00,79.3,39.4,29.89,West,263,0.0,1.0,24,0.00,,,0.00,vanprod-2.3,2013-05-16 16:26:00,
2013-05-16 11:31:00,79.6,41.7,29.88,West,263,0.0,1.0,26,0.00,,,0.00,vanprod-2.3,2013-05-16 16:31:00,
2013-05-16 11:36:00,79.4,39.5,29.88,WSW,250,2.0,2.0,24,0.00,,,0.00,vanprod-2.3,2013-05-16 16:36:00,
2013-05-16 11:41:00,79.8,40.9,29.88,WSW,250,1.0,0.0,25,0.00,,,0.00,vanprod-2.3,2013-05-16 16:41:00,
2013-05-16 11:46:00,79.8,39.8,29.88,WSW,244,2.0,2.0,24,0.00,,,0.00,vanprod-2.3,2013-05-16 16:46:00,
2013-05-16 11:51:00,79.6,38.6,29.88,WSW,244,2.0,3.0,23,0.00,,,0.00,vanprod-2.3,2013-05-16 16:51:00,
2013-05-16 11:56:00,80.2,41.2,29.87,WSW,244,0.0,3.0,25,0.00,,,0.00,vanprod-2.3,2013-05-16 16:56:00,
2013-05-16 12:01:00,80.6,40.5,29.87,WSW,238,1.0,3.0,24,0.00,,,0.00,vanprod-2.3,2013-05-16 17:01:00,
2013-05-16 12:06:00,80.7,39.5,29.87,WSW,238,2.0,2.0,23,0.00,,,0.00,vanprod-2.3,2013-05-16 17:06:00,
2013-05-16 12:11:00,80.9,41.8,29.87,WSW,238,2.0,0.0,25,0.00,,,0.00,vanprod-2.3,2013-05-16 17:11:00,
2013-05-16 12:16:00,81.5,39.0,29.87,SW,230,2.0,0.0,22,0.00,,,0.00,vanprod-2.3,2013-05-16 17:16:00,
2013-05-16 12:21:00,81.3,38.9,29.87,SW,230,3.0,3.0,22,0.00,,,0.00,vanprod-2.3,2013-05-16 17:21:00,
2013-05-16 12:26:00,81.5,39.0,29.87,SW,225,3.0,7.0,22,0.00,,,0.00,vanprod-2.3,2013-05-16 17:26:00,
2013-05-16 12:31:00,82.1,39.5,29.86,SSW,213,2.0,2.0,22,0.00,,,0.00,vanprod-2.3,2013-05-16 17:31:00,
2013-05-16 12:36:00,81.7,40.3,29.86,SSW,209,2.0,5.0,23,0.00,,,0.00,vanprod-2.3,2013-05-16 17:36:00,
2013-05-16 12:41:00,81.9,39.4,29.87,SSW,209,1.0,0.0,22,0.00,,,0.00,vanprod-2.3,2013-05-16 17:41:00,
2013-05-16 12:46:00,82.3,39.7,29.86,SSW,209,2.0,3.0,22,0.00,,,0.00,vanprod-2.3,2013-05-16 17:46:00,
2013-05-16 12:51:00,82.3,39.7,29.86,SSW,209,3.0,3.0,22,0.00,,,0.00,vanprod-2.3,2013-05-16 17:51:00,
2013-05-16 12:56:00,82.5,41.0,29.87,SSW,206,3.0,4.0,23,0.00,,,0.00,vanprod-2.3,2013-05-16 17:56:00,
2013-05-16 13:01:00,82.9,40.2,29.87,SSW,205,1.0,0.0,22,0.00,,,0.00,vanprod-2.3,2013-05-16 18:01:00,
2013-05-16 13:06:00,83.6,40.8,29.87,SSW,205,4.0,8.0,22,0.00,,,0.00,vanprod-2.3,2013-05-16 18:06:00,
2013-05-16 13:11:00,83.6,39.6,29.87,SSW,205,2.0,2.0,21,0.00,,,0.00,vanprod-2.3,2013-05-16 18:11:00,
2013-05-16 13:16:00,83.8,39.7,29.87,SSW,205,2.0,3.0,21,0.00,,,0.00,vanprod-2.3,2013-05-16 18:16:00,
2013-05-16 13:21:00,83.6,39.6,29.86,SSW,205,1.0,1.0,21,0.00,,,0.00,vanprod-2.3,2013-05-16 18:21:00,
2013-05-16 13:26:00,83.1,40.4,29.86,SSW,205,1.0,1.0,22,0.00,,,0.00,vanprod-2.3,2013-05-16 18:26:00,
2013-05-16 13:31:00,82.9,40.2,29.86,SSW,205,0.0,2.0,22,0.00,,,0.00,vanprod-2.3,2013-05-16 18:31:00,
2013-05-16 13:36:00,83.5,41.8,29.86,SSW,205,0.0,0.0,23,0.00,,,0.00,vanprod-2.3,2013-05-16 18:36:00,
2013-05-16 13:41:00,84.0,38.7,29.86,SSW,205,0.0,0.0,20,0.00,,,0.00,vanprod-2.3,2013-05-16 18:41:00,
2013-05-16 13:46:00,84.0,39.9,29.85,SSW,205,0.0,2.0,21,0.00,,,0.00,vanprod-2.3,2013-05-16 18:46:00,
2013-05-16 13:51:00,84.2,41.3,29.85,SSW,205,1.0,0.0,22,0.00,,,0.00,vanprod-2.3,2013-05-16 18:51:00,
2013-05-16 13:56:00,84.2,40.1,29.85,SSW,205,0.0,1.0,21,0.00,,,0.00,vanprod-2.3,2013-05-16 18:56:00,
2013-05-16 14:01:00,84.6,41.6,29.84,SSW,205,0.0,0.0,22,0.00,,,0.00,vanprod-2.3,2013-05-16 19:01:00,
2013-05-16 14:06:00,84.2,40.1,29.85,SSW,205,3.0,3.0,21,0.00,,,0.00,vanprod-2.3,2013-05-16 19:06:00,
2013-05-16 14:11:00,84.6,41.6,29.85,SSW,205,1.0,3.0,22,0.00,,,0.00,vanprod-2.3,2013-05-16 19:11:00,
2013-05-16 14:16:00,84.6,41.6,29.84,SSW,205,3.0,3.0,22,0.00,,,0.00,vanprod-2.3,2013-05-16 19:16:00,
2013-05-16 14:21:00,83.8,40.9,29.85,SSW,205,1.0,0.0,22,0.00,,,0.00,vanprod-2.3,2013-05-16 19:21:00,
2013-05-16 14:26:00,83.8,42.1,29.84,SSW,205,2.0,0.0,23,0.00,,,0.00,vanprod-2.3,2013-05-16 19:26:00,
2013-05-16 14:31:00,84.2,40.1,29.85,SSW,205,2.0,3.0,21,0.00,,,0.00,vanprod-2.3,2013-05-16 19:31:00,
2013-05-16 14:36:00,83.5,40.7,29.85,SSW,203,3.0,0.0,22,0.00,,,0.00,vanprod-2.3,2013-05-16 19:36:00,
2013-05-16 14:41:00,83.3,40.5,29.85,SSW,203,1.0,0.0,22,0.00,,,0.00,vanprod-2.3,2013-05-16 19:41:00,
2013-05-16 14:46:00,83.3,41.7,29.85,SSW,203,1.0,2.0,23,0.00,,,0.00,vanprod-2.3,2013-05-16 19:46:00,
2013-05-16 14:51:00,83.5,40.7,29.85,SSW,203,1.0,1.0,22,0.00,,,0.00,vanprod-2.3,2013-05-16 19:51:00,
2013-05-16 14:56:00,83.8,39.7,29.85,SSW,203,4.0,5.0,21,0.00,,,0.00,vanprod-2.3,2013-05-16 19:56:00,
2013-05-16 15:01:00,83.3,40.5,29.85,SSW,200,3.0,3.0,22,0.00,,,0.00,vanprod-2.3,2013-05-16 20:01:00,
2013-05-16 15:06:00,83.3,40.5,29.85,SSW,200,1.0,1.0,22,0.00,,,0.00,vanprod-2.3,2013-05-16 20:06:00,
2013-05-16 15:11:00,83.5,40.7,29.85,SSW,200,0.0,0.0,22,0.00,,,0.00,vanprod-2.3,2013-05-16 20:11:00,
2013-05-16 15:16:00,83.5,40.7,29.85,SSW,200,1.0,0.0,22,0.00,,,0.00,vanprod-2.3,2013-05-16 20:16:00,
2013-05-16 15:21:00,83.6,40.8,29.85,SSW,200,0.0,2.0,22,0.00,,,0.00,vanprod-2.3,2013-05-16 20:21:00,
2013-05-16 15:26:00,83.8,39.7,29.85,SSW,200,0.0,0.0,21,0.00,,,0.00,vanprod-2.3,2013-05-16 20:26:00,
2013-05-16 15:31:00,84.0,39.9,29.85,SSW,200,0.0,2.0,21,0.00,,,0.00,vanprod-2.3,2013-05-16 20:31:00,
2013-05-16 15:36:00,83.8,39.7,29.85,SSW,200,2.0,2.0,21,0.00,,,0.00,vanprod-2.3,2013-05-16 20:36:00,
2013-05-16 15:41:00,83.8,39.7,29.84,SSW,200,1.0,3.0,21,0.00,,,0.00,vanprod-2.3,2013-05-16 20:41:00,
2013-05-16 15:46:00,83.6,39.6,29.84,SSW,200,3.0,3.0,21,0.00,,,0.00,vanprod-2.3,2013-05-16 20:46:00,
2013-05-16 15:51:00,83.3,41.7,29.84,SSW,200,0.0,0.0,23,0.00,,,0.00,vanprod-2.3,2013-05-16 20:51:00,
2013-05-16 15:56:00,83.5,40.7,29.84,SSW,200,0.0,0.0,22,0.00,,,0.00,vanprod-2.3,2013-05-16 20:56:00,
2013-05-16 16:01:00,83.6,41.9,29.84,SSW,200,0.0,1.0,23,0.00,,,0.00,vanprod-2.3,2013-05-16 21:01:00,
2013-05-16 16:06:00,83.6,41.9,29.84,SSW,200,0.0,0.0,23,0.00,,,0.00,vanprod-2.3,2013-05-16 21:06:00,
2013-05-16 16:11:00,83.5,39.5,29.84,SSW,200,0.0,0.0,21,0.00,,,0.00,vanprod-2.3,2013-05-16 21:11:00,
2013-05-16 16:16:00,83.6,40.8,29.83,SSW,200,0.0,1.0,22,0.00,,,0.00,vanprod-2.3,2013-05-16 21:16:00,
2013-05-16 16:21:00,83.5,40.7,29.83,SSW,200,0.0,0.0,22,0.00,,,0.00,vanprod-2.3,2013-05-16 21:21:00,
2013-05-16 16:26:00,83.3,39.3,29.83,SSW,200,0.0,0.0,21,0.00,,,0.00,vanprod-2.3,2013-05-16 21:26:00,
2013-05-16 16:31:00,83.3,41.7,29.83,SSW,200,1.0,0.0,23,0.00,,,0.00,vanprod-2.3,2013-05-16 21:31:00,
2013-05-16 16:36:00,83.1,40.4,29.83,SSW,200,0.0,0.0,22,0.00,,,0.00,vanprod-2.3,2013-05-16 21:36:00,
2013-05-16 16:41:00,82.9,40.2,29.82,SSW,200,0.0,1.0,22,0.00,,,0.00,vanprod-2.3,2013-05-16 21:41:00,
2013-05-16 16:46:00,82.9,41.3,29.82,SSW,200,0.0,0.0,23,0.00,,,0.00,vanprod-2.3,2013-05-16 21:46:00,
2013-05-16 16:51:00,83.1,40.4,29.82,SSW,200,1.0,1.0,22,0.00,,,0.00,vanprod-2.3,2013-05-16 21:51:00,
2013-05-16 16:56:00,82.9,40.2,29.82,SSW,200,1.0,0.0,22,0.00,,,0.00,vanprod-2.3,2013-05-16 21:56:00,
2013-05-16 17:01:00,82.9,40.2,29.82,SSW,200,0.0,0.0,22,0.00,,,0.00,vanprod-2.3,2013-05-16 22:01:00,
2013-05-16 17:06:00,82.9,40.2,29.82,SSW,200,0.0,0.0,22,0.00,,,0.00,vanprod-2.3,2013-05-16 22:06:00,
2013-05-16 17:11:00,82.9,40.2,29.81,SSW,200,0.0,0.0,22,0.00,,,0.00,vanprod-2.3,2013-05-16 22:11:00,
2013-05-16 17:16:00,82.9,40.2,29.81,SSW,200,0.0,0.0,22,0.00,,,0.00,vanprod-2.3,2013-05-16 22:16:00,
2013-05-16 17:21:00,82.9,40.2,29.81,SSW,200,0.0,0.0,22,0.00,,,0.00,vanprod-2.3,2013-05-16 22:21:00,
2013-05-16 17:26:00,82.7,40.0,29.81,SSW,200,0.0,0.0,22,0.00,,,0.00,vanprod-2.3,2013-05-16 22:26:00,
2013-05-16 17:31:00,82.5,39.9,29.81,SSW,200,0.0,0.0,22,0.00,,,0.00,vanprod-2.3,2013-05-16 22:31:00,
2013-05-16 17:36:00,82.3,39.7,29.81,SSW,200,0.0,0.0,22,0.00,,,0.00,vanprod-2.3,2013-05-16 22:36:00,
2013-05-16 17:41:00,82.5,41.0,29.81,SSW,200,0.0,0.0,23,0.00,,,0.00,vanprod-2.3,2013-05-16 22:41:00,
2013-05-16 17:46:00,82.3,39.7,29.81,SSW,200,0.0,0.0,22,0.00,,,0.00,vanprod-2.3,2013-05-16 22:46:00,
2013-05-16 17:51:00,82.1,39.5,29.81,SSW,200,0.0,1.0,22,0.00,,,0.00,vanprod-2.3,2013-05-16 22:51:00,
2013-05-16 17:56:00,81.9,39.4,29.81,SSW,200,0.0,1.0,22,0.00,,,0.00,vanprod-2.3,2013-05-16 22:56:00,
2013-05-16 18:01:00,81.9,39.4,29.81,SSW,200,0.0,0.0,22,0.00,,,0.00,vanprod-2.3,2013-05-16 23:01:00,
2013-05-16 18:06:00,81.7,40.3,29.81,SSW,200,0.0,0.0,23,0.00,,,0.00,vanprod-2.3,2013-05-16 23:06:00,
2013-05-16 18:11:00,81.7,39.2,29.81,SSW,200,0.0,1.0,22,0.00,,,0.00,vanprod-2.3,2013-05-16 23:11:00,
2013-05-16 18:16:00,81.5,40.2,29.81,SSW,200,0.0,0.0,23,0.00,,,0.00,vanprod-2.3,2013-05-16 23:16:00,
2013-05-16 18:21:00,81.5,40.2,29.80,SSW,200,0.0,0.0,23,0.00,,,0.00,vanprod-2.3,2013-05-16 23:21:00,
2013-05-16 18:26:00,81.3,40.0,29.80,SSW,200,0.0,0.0,23,0.00,,,0.00,vanprod-2.3,2013-05-16 23:26:00,
2013-05-16 18:31:00,81.1,39.8,29.80,SSW,200,0.0,0.0,23,0.00,,,0.00,vanprod-2.3,2013-05-16 23:31:00,
2013-05-16 18:36:00,81.1,40.9,29.80,SSW,200,0.0,0.0,24,0.00,,,0.00,vanprod-2.3,2013-05-16 23:36:00,
2013-05-16 18:41:00,80.9,39.7,29.80,SSW,200,0.0,0.0,23,0.00,,,0.00,vanprod-2.3,2013-05-16 23:41:00,
2013-05-16 18:46:00,80.9,41.8,29.80,SSW,200,0.0,0.0,25,0.00,,,0.00,vanprod-2.3,2013-05-16 23:46:00,
2013-05-16 18:51:00,80.7,40.6,29.80,SSW,200,0.0,0.0,24,0.00,,,0.00,vanprod-2.3,2013-05-16 23:51:00,
2013-05-16 18:56:00,80.6,41.6,29.80,SSW,200,0.0,0.0,25,0.00,,,0.00,vanprod-2.3,2013-05-16 23:56:00,
2013-05-16 19:01:00,80.4,42.4,29.80,SSW,200,0.0,0.0,26,0.00,,,0.00,vanprod-2.3,2013-05-17 00:01:00,
2013-05-16 19:06:00,80.0,41.1,29.80,SSW,200,0.0,0.0,25,0.00,,,0.00,vanprod-2.3,2013-05-17 00:06:00,
2013-05-16 19:11:00,79.8,40.9,29.80,SSW,200,0.0,0.0,25,0.00,,,0.00,vanprod-2.3,2013-05-17 00:11:00,
2013-05-16 19:16:00,79.6,41.7,29.81,South,179,0.0,0.0,26,0.00,,,0.00,vanprod-2.3,2013-05-17 00:16:00,
2013-05-16 19:21:00,79.3,41.5,29.81,South,179,1.0,0.0,26,0.00,,,0.00,vanprod-2.3,2013-05-17 00:21:00,
2013-05-16 19:26:00,78.7,41.9,29.81,South,179,2.0,2.0,27,0.00,,,0.00,vanprod-2.3,2013-05-17 00:26:00,
2013-05-16 19:31:00,78.1,41.4,29.81,South,179,2.0,6.0,27,0.00,,,0.00,vanprod-2.3,2013-05-17 00:31:00,
2013-05-16 19:36:00,78.0,41.3,29.81,South,178,3.0,3.0,27,0.00,,,0.00,vanprod-2.3,2013-05-17 00:36:00,
2013-05-16 19:41:00,78.0,41.3,29.82,South,178,4.0,4.0,27,0.00,,,0.00,vanprod-2.3,2013-05-17 00:41:00,
2013-05-16 19:46:00,77.6,41.9,29.82,South,178,1.0,2.0,28,0.00,,,0.00,vanprod-2.3,2013-05-17 00:46:00,
2013-05-16 19:51:00,77.4,41.8,29.83,South,178,0.0,1.0,28,0.00,,,0.00,vanprod-2.3,2013-05-17 00:51:00,
2013-05-16 19:56:00,77.2,40.7,29.83,South,178,2.0,0.0,27,0.00,,,0.00,vanprod-2.3,2013-05-17 00:56:00,
2013-05-16 20:01:00,77.4,41.8,29.83,South,180,1.0,6.0,28,0.00,,,0.00,vanprod-2.3,2013-05-17 01:01:00,
2013-05-16 20:06:00,77.4,41.8,29.83,South,179,1.0,3.0,28,0.00,,,0.00,vanprod-2.3,2013-05-17 01:06:00,
2013-05-16 20:11:00,77.2,41.6,29.84,South,176,3.0,3.0,28,0.00,,,0.00,vanprod-2.3,2013-05-17 01:11:00,
2013-05-16 20:16:00,77.2,41.6,29.84,South,175,1.0,2.0,28,0.00,,,0.00,vanprod-2.3,2013-05-17 01:16:00,
2013-05-16 20:21:00,76.9,42.3,29.85,South,175,3.0,11.0,29,0.00,,,0.00,vanprod-2.3,2013-05-17 01:21:00,
2013-05-16 20:26:00,76.0,44.0,29.85,South,189,7.0,8.0,32,0.00,,,0.00,vanprod-2.3,2013-05-17 01:26:00,
2013-05-16 20:31:00,75.1,44.8,29.86,SSW,205,2.0,2.0,34,0.00,,,0.00,vanprod-2.3,2013-05-17 01:31:00,
2013-05-16 20:36:00,74.9,45.4,29.86,SSW,203,2.0,2.0,35,0.00,,,0.00,vanprod-2.3,2013-05-17 01:36:00,
2013-05-16 20:41:00,74.2,44.8,29.86,South,189,4.0,7.0,35,0.00,,,0.00,vanprod-2.3,2013-05-17 01:41:00,
2013-05-16 20:46:00,73.7,45.8,29.86,South,189,2.0,6.0,37,0.00,,,0.00,vanprod-2.3,2013-05-17 01:46:00,
2013-05-16 20:51:00,73.4,46.3,29.87,South,189,1.0,0.0,38,0.00,,,0.00,vanprod-2.3,2013-05-17 01:51:00,
2013-05-16 20:56:00,73.0,45.9,29.87,South,189,1.0,0.0,38,0.00,,,0.00,vanprod-2.3,2013-05-17 01:56:00,
2013-05-16 21:01:00,72.8,46.4,29.87,South,189,0.0,0.0,39,0.00,,,0.00,vanprod-2.3,2013-05-17 02:01:00,
2013-05-16 21:06:00,72.5,46.2,29.87,South,189,0.0,0.0,39,0.00,,,0.00,vanprod-2.3,2013-05-17 02:06:00,
2013-05-16 21:11:00,72.3,46.0,29.87,South,189,0.0,0.0,39,0.00,,,0.00,vanprod-2.3,2013-05-17 02:11:00,
2013-05-16 21:16:00,72.2,46.6,29.86,South,189,0.0,0.0,40,0.00,,,0.00,vanprod-2.3,2013-05-17 02:16:00,
2013-05-16 21:21:00,72.0,46.4,29.86,South,189,0.0,0.0,40,0.00,,,0.00,vanprod-2.3,2013-05-17 02:21:00,
2013-05-16 21:26:00,72.0,47.0,29.86,South,189,0.0,0.0,41,0.00,,,0.00,vanprod-2.3,2013-05-17 02:26:00,
2013-05-16 21:31:00,71.6,46.7,29.86,South,189,0.0,0.0,41,0.00,,,0.00,vanprod-2.3,2013-05-17 02:31:00,
2013-05-16 21:36:00,71.3,48.3,29.86,South,189,0.0,0.0,44,0.00,,,0.00,vanprod-2.3,2013-05-17 02:36:00,
2013-05-16 21:41:00,71.1,46.9,29.86,South,189,0.0,0.0,42,0.00,,,0.00,vanprod-2.3,2013-05-17 02:41:00,
2013-05-16 21:46:00,71.0,47.4,29.86,South,189,0.0,0.0,43,0.00,,,0.00,vanprod-2.3,2013-05-17 02:46:00,
2013-05-16 21:51:00,71.0,47.4,29.86,South,189,0.0,0.0,43,0.00,,,0.00,vanprod-2.3,2013-05-17 02:51:00,
2013-05-16 21:56:00,70.6,47.7,29.87,South,189,0.0,2.0,44,0.00,,,0.00,vanprod-2.3,2013-05-17 02:56:00,
2013-05-16 22:01:00,70.4,48.7,29.86,South,189,1.0,2.0,46,0.00,,,0.00,vanprod-2.3,2013-05-17 03:01:00,
2013-05-16 22:06:00,70.1,49.5,29.87,South,189,1.0,0.0,48,0.00,,,0.00,vanprod-2.3,2013-05-17 03:06:00,
2013-05-16 22:11:00,69.9,49.9,29.87,South,189,1.0,1.0,49,0.00,,,0.00,vanprod-2.3,2013-05-17 03:11:00,
2013-05-16 22:16:00,69.6,50.7,29.87,South,189,2.0,2.0,51,0.00,,,0.00,vanprod-2.3,2013-05-17 03:16:00,
2013-05-16 22:21:00,69.3,50.9,29.87,South,189,0.0,0.0,52,0.00,,,0.00,vanprod-2.3,2013-05-17 03:21:00,
2013-05-16 22:26:00,68.8,51.5,29.87,South,189,0.0,0.0,54,0.00,,,0.00,vanprod-2.3,2013-05-17 03:26:00,
2013-05-16 22:31:00,68.4,51.1,29.87,South,189,0.0,0.0,54,0.00,,,0.00,vanprod-2.3,2013-05-17 03:31:00,
2013-05-16 22:36:00,68.3,51.5,29.87,South,189,0.0,0.0,55,0.00,,,0.00,vanprod-2.3,2013-05-17 03:36:00,
2013-05-16 22:41:00,68.1,51.3,29.87,South,189,0.0,0.0,55,0.00,,,0.00,vanprod-2.3,2013-05-17 03:41:00,
2013-05-16 22:46:00,67.9,51.6,29.87,South,189,0.0,0.0,56,0.00,,,0.00,vanprod-2.3,2013-05-17 03:46:00,
2013-05-16 22:51:00,67.8,51.6,29.87,South,189,0.0,0.0,56,0.00,,,0.00,vanprod-2.3,2013-05-17 03:51:00,
2013-05-16 22:56:00,67.4,51.7,29.87,South,189,0.0,0.0,57,0.00,,,0.00,vanprod-2.3,2013-05-17 03:56:00,
2013-05-16 23:01:00,67.3,51.6,29.86,South,189,0.0,0.0,57,0.00,,,0.00,vanprod-2.3,2013-05-17 04:01:00,
2013-05-16 23:06:00,67.1,51.4,29.87,South,189,0.0,0.0,57,0.00,,,0.00,vanprod-2.3,2013-05-17 04:06:00,
2013-05-16 23:11:00,67.1,51.4,29.87,South,189,0.0,0.0,57,0.00,,,0.00,vanprod-2.3,2013-05-17 04:11:00,
2013-05-16 23:16:00,66.9,51.7,29.86,South,189,0.0,0.0,58,0.00,,,0.00,vanprod-2.3,2013-05-17 04:16:00,
2013-05-16 23:21:00,66.9,52.1,29.86,South,189,0.0,0.0,59,0.00,,,0.00,vanprod-2.3,2013-05-17 04:21:00,
2013-05-16 23:26:00,66.8,52.5,29.87,South,189,0.0,0.0,60,0.00,,,0.00,vanprod-2.3,2013-05-17 04:26:00,
2013-05-16 23:31:00,66.6,52.3,29.87,South,189,0.0,0.0,60,0.00,,,0.00,vanprod-2.3,2013-05-17 04:31:00,
2013-05-16 23:36:00,66.6,52.3,29.87,South,189,0.0,0.0,60,0.00,,,0.00,vanprod-2.3,2013-05-17 04:36:00,
2013-05-16 23:41:00,66.4,52.1,29.87,South,189,0.0,0.0,60,0.00,,,0.00,vanprod-2.3,2013-05-17 04:41:00,
2013-05-16 23:46:00,66.4,52.1,29.87,South,189,0.0,0.0,60,0.00,,,0.00,vanprod-2.3,2013-05-17 04:46:00,
2013-05-16 23:51:00,66.1,52.3,29.87,South,189,0.0,1.0,61,0.00,,,0.00,vanprod-2.3,2013-05-17 04:51:00,
2013-05-16 23:56:00,66.1,50.9,29.87,South,189,0.0,2.0,58,0.00,,,0.00,vanprod-2.3,2013-05-17 04:56:00,